[[{"header":{"parameterUnit":"m.s-1","parameterCategory":1,"la1":30.2992,"la2":30.254,"lo1":-89.0895,"lo2":-89.0443,"dy":0.0025,"dx":0.0025,"nx":19,"ny":19,"refTime":"2026-05-13T21:00:00:Z","depth":0,"parameterNumber":2,"parameterNumberName":"U-component_of_WINDS"},"data":[0,0,0,1.2115,1.2115,1.2135,1.2135,1.2166,1.2167,0,0,0,0,0,0,0,0,0,0,0,1.2112,1.2112,1.2115,1.2115,1.2135,1.2135,1.2166,1.2167,0,0,0,0,0,0,0,0,0,0,0,1.2112,1.2112,1.2113,1.2115,1.2135,1.2135,1.2166,1.2149,0,0,0,0,0,0,0,0,0,0,1.2129,1.2129,1.2112,1.2113,1.2116,1.2135,1.2135,1.2148,1.215,1.216,0,1.2169,0,1.2168,1.2169,1.2169,0,0,0,1.2113,1.2128,1.213,1.2113,1.2116,1.2135,1.2126,1.2149,1.2152,1.2162,1.2169,1.217,1.2169,1.2169,1.217,1.2232,1.2232,0,0,1.2112,1.2117,1.2129,1.2132,1.2129,1.2125,1.2126,1.2151,1.2158,1.2169,1.2171,1.2169,1.217,1.217,1.2231,1.2232,0,0,0,1.211,1.2116,1.2118,1.2131,1.2134,1.2126,1.2127,1.2157,1.2157,1.2171,1.217,1.217,1.217,1.2231,1.2232,1.2257,0,0,0,1.211,1.2115,1.2118,1.2121,1.2134,1.2146,1.2133,1.2156,1.2158,1.2169,1.217,1.2171,1.2231,1.2231,1.2255,1.2267,0,0,0,1.211,1.2115,1.2119,1.2122,1.213,1.2145,1.2147,1.2156,1.2158,1.2169,1.2171,1.223,1.2231,1.2253,1.2265,1.2286,0,0,0,1.2111,1.2141,1.212,1.2153,1.213,1.2161,1.2146,1.2169,1.2182,1.217,1.2231,1.2232,1.2253,1.2263,1.2284,1.2304,1.2313,0,0,1.2151,1.2146,1.2164,1.2147,1.2182,1.2157,1.2196,1.2203,1.2199,1.2221,1.2223,1.2255,1.2265,1.2285,1.236,1.2367,0,0,0,1.2179,1.2193,1.2201,1.2214,1.222,1.2227,1.2227,1.223,1.2249,1.2212,1.2268,1.2274,1.2286,1.2295,1.2301,1.2311,1.2236,1.2236,1.2236,1.2242,1.2237,1.2268,1.2266,1.2279,1.228,1.229,1.2294,1.2284,1.2297,1.2304,1.235,1.2361,1.2365,1.2376,1.2314,1.2314,1.2314,1.2314,1.2301,1.232,1.2307,1.2333,1.2327,1.2349,1.2352,1.2345,1.2364,1.2344,1.2354,1.2333,1.2373,1.2382,1.2316,1.2316,1.2315,1.2315,1.2315,1.2342,1.235,1.2353,1.2373,1.2388,1.2385,1.2405,1.2399,1.2393,1.2404,1.241,1.241,1.2409,1.2407,1.2407,1.2408,1.2408,1.2408,1.2408,1.2382,1.2386,1.2403,1.2414,1.2423,1.2433,1.2436,1.2444,1.2451,1.2446,1.2446,1.2435,1.2378,1.2364,1.241,1.241,1.241,1.2409,1.2409,1.2443,1.2429,1.2456,1.2465,1.2478,1.2495,1.2487,1.2505,1.2511,1.2521,1.2509,1.2468,1.2462,1.2457,1.2445,1.251,1.251,1.251,1.251,1.2478,1.2474,1.2502,1.2516,1.2529,1.2526,1.2558,1.2561,1.2562,1.2566,1.2556,1.254,1.2536,1.2532,1.2526,1.2515,1.2595,1.2595,1.2595,1.2515,1.2513,1.2541,1.2542,1.2552,1.2562,1.2592,1.2609,1.2607,1.2599,1.2569,1.2565,1.254,1.2531,1.2521,1.2511,1.2491,0,0]},{"header":{"parameterUnit":"m.s-1","parameterCategory":1,"la1":30.2992,"la2":30.254,"lo1":-89.0895,"lo2":-89.0443,"dy":0.0025,"dx":0.0025,"nx":19,"ny":19,"refTime":"2026-05-13T21:00:00:Z","depth":0,"parameterNumber":3,"parameterNumberName":"V-component_of_WINDS"},"data":[0,0,0,-2.0251,-2.0254,-2.0377,-2.0377,-2.0531,-2.0532,0,0,0,0,0,0,0,0,0,0,0,-2.0213,-2.0214,-2.0251,-2.0254,-2.0376,-2.0377,-2.0531,-2.0532,0,0,0,0,0,0,0,0,0,0,0,-2.0213,-2.0214,-2.0215,-2.0255,-2.0376,-2.0377,-2.053,-2.0439,0,0,0,0,0,0,0,0,0,0,-2.032,-2.0284,-2.0214,-2.0215,-2.0255,-2.0376,-2.0377,-2.0435,-2.0445,-2.0474,0,-2.05,0,-2.0519,-2.0542,-2.0543,0,0,0,-2.0255,-2.0275,-2.031,-2.0215,-2.0256,-2.0376,-2.0322,-2.044,-2.0452,-2.0488,-2.0502,-2.0508,-2.0521,-2.0543,-2.0544,-2.0712,-2.0713,0,0,-2.0248,-2.0234,-2.0302,-2.0317,-2.0298,-2.0318,-2.0325,-2.0447,-2.0462,-2.0503,-2.0512,-2.0524,-2.0544,-2.0546,-2.0712,-2.0713,0,0,0,-2.0228,-2.023,-2.0261,-2.0311,-2.0333,-2.0321,-2.033,-2.0457,-2.0468,-2.0514,-2.0526,-2.0545,-2.0547,-2.0711,-2.0712,-2.0735,0,0,0,-2.0224,-2.0218,-2.0258,-2.0251,-2.0331,-2.0397,-2.0337,-2.046,-2.0474,-2.0525,-2.0545,-2.0549,-2.071,-2.0712,-2.0733,-2.0749,0,0,0,-2.0206,-2.0216,-2.0233,-2.025,-2.0302,-2.0395,-2.0414,-2.0463,-2.0482,-2.0543,-2.0549,-2.071,-2.0711,-2.0731,-2.0745,-2.0789,0,0,0,-2.0182,-2.0251,-2.0233,-2.0315,-2.0301,-2.0408,-2.0413,-2.0493,-2.0549,-2.0546,-2.071,-2.0712,-2.073,-2.0743,-2.0787,-2.0825,-2.0839,0,0,-2.0261,-2.026,-2.0309,-2.0297,-2.0404,-2.0391,-2.0501,-2.0565,-2.0583,-2.0668,-2.0673,-2.0734,-2.0745,-2.0789,-2.0922,-2.0933,0,0,0,-2.0329,-2.0365,-2.0396,-2.0449,-2.0499,-2.0545,-2.0593,-2.0617,-2.069,-2.0624,-2.0762,-2.0769,-2.0795,-2.0814,-2.0823,-2.0847,-2.072,-2.072,-2.0719,-2.0421,-2.0442,-2.0525,-2.056,-2.0611,-2.0661,-2.0704,-2.0745,-2.075,-2.0782,-2.0808,-2.0886,-2.0907,-2.0915,-2.0939,-2.0829,-2.0829,-2.0829,-2.0829,-2.0539,-2.0593,-2.0599,-2.0682,-2.0704,-2.0773,-2.0824,-2.0826,-2.0894,-2.0868,-2.0893,-2.0863,-2.0926,-2.0949,-2.0831,-2.0831,-2.083,-2.083,-2.083,-2.0602,-2.0632,-2.066,-2.0739,-2.0797,-2.083,-2.0896,-2.0913,-2.0929,-2.0953,-2.0983,-2.0982,-2.0985,-2.0966,-2.0966,-2.0967,-2.0967,-2.0967,-2.0967,-2.0656,-2.0688,-2.0741,-2.0801,-2.0838,-2.0888,-2.0939,-2.0976,-2.1021,-2.1028,-2.1028,-2.1031,-2.0928,-2.0903,-2.0972,-2.0971,-2.097,-2.097,-2.097,-2.077,-2.0747,-2.0829,-2.0866,-2.0939,-2.0997,-2.1017,-2.109,-2.1123,-2.1155,-2.1153,-2.1074,-2.1074,-2.1066,-2.1045,-2.1147,-2.1147,-2.1147,-2.1147,-2.0823,-2.0825,-2.0914,-2.0971,-2.103,-2.1057,-2.1151,-2.1192,-2.123,-2.1252,-2.1239,-2.1213,-2.1204,-2.1209,-2.1199,-2.1179,-2.1313,-2.1313,-2.1314,-2.0894,-2.0903,-2.0979,-2.1017,-2.1075,-2.1125,-2.1214,-2.128,-2.1319,-2.1321,-2.1269,-2.1262,-2.1219,-2.1204,-2.1205,-2.1188,-2.1153,0,0]}]]